[[{"header":{"parameterUnit":"m.s-1","parameterCategory":1,"la1":30.2991,"la2":30.254,"lo1":-89.0895,"lo2":-89.0444,"dy":0.0017,"dx":0.0017,"nx":28,"ny":28,"refTime":"2025-07-28T09:00:00:Z","depth":0,"parameterNumber":2,"parameterNumberName":"U-component_of_WINDS"},"data":[0,0,0,0,0,0,0,0,0,0,0,0,0,0,0,0,0,0,0,0,0,0,0,0,0,0,0,0,0,0,0,0,0,0,0,0,0,0,0,0,0,0,0,0,0,0,0,0,0,0,0,0,0,0,0,0,0,0,2.0133,2.0133,0,2.0144,2.0144,2.0144,2.0081,2.0079,2.0077,2.0075,2.0088,2.009,2.0092,0,0,0,0,0,0,0,0,0,0,0,0,0,2.0059,2.006,2.0133,2.0133,2.0133,2.0144,2.0144,2.0144,2.0081,2.0079,2.0077,2.0075,2.0087,2.009,2.0092,0,0,0,0,0,0,0,0,0,0,0,0,0,2.0082,2.0061,2.0133,2.0103,2.01,2.0144,2.0144,2.0144,2.0081,2.0079,2.0076,2.0073,2.0086,2.0089,2.0092,2.0165,0,0,2.0102,2.0103,0,0,0,0,0,0,0,0,2.0081,2.0085,2.0107,2.0105,2.0102,2.0108,2.0122,2.0151,2.0082,2.0089,2.0075,2.0072,2.0097,2.0099,2.0107,2.0166,2.0166,2.0102,2.0104,2.0105,2.0106,0,0,0,0,0,0,0,2.008,2.0084,2.0137,2.0107,2.0104,2.0089,2.009,2.0127,2.0108,2.0088,2.0083,2.0085,2.0095,2.0104,2.0107,2.0167,2.0102,2.0104,2.0106,2.0107,2.0288,2.029,0,0,0,0,0,0,2.0082,2.0083,2.0137,2.0137,2.0085,2.0093,2.0093,2.0109,2.0107,2.0104,2.0088,2.0082,2.01,2.0103,2.0107,2.0193,2.0105,2.0108,2.0109,2.0285,2.0288,2.0291,0,0,0,0,0,0,2.008,2.0087,2.0136,2.0109,2.0114,2.0097,2.0115,2.0111,2.012,2.0107,2.0103,2.0101,2.0098,2.0103,2.0151,2.0193,2.0109,2.0112,2.0281,2.0286,2.029,2.0367,0,0,0,0,0,0,2.0078,2.0087,2.0114,2.011,2.0116,2.0181,2.0118,2.0113,2.0125,2.0118,2.0118,2.0116,2.0096,2.0147,2.0155,2.0196,2.0114,2.0277,2.0283,2.0288,2.036,2.0373,2.0384,0,0,0,0,0,2.0076,2.0135,2.0116,2.0123,2.015,2.0183,2.0186,2.0163,2.0128,2.0156,2.0148,2.0116,2.0187,2.0153,2.016,2.0203,2.0275,2.0282,2.0288,2.0355,2.0371,2.0384,0,0,0,0,0,0,2.0144,2.0134,2.0112,2.0172,2.0179,2.0172,2.0206,2.018,2.0197,2.019,2.016,2.016,2.0215,2.0213,2.0176,2.0274,2.0225,2.0234,2.0273,2.0288,2.03,2.0299,2.0117,0,0,0,0,0,2.0166,2.0194,2.0184,2.0237,2.0242,2.0224,2.0237,2.0218,2.0224,2.0227,2.0223,2.023,2.0254,2.0271,2.0292,2.0359,2.0359,2.0393,2.0404,2.0414,2.0422,2.0459,2.0474,2.0313,2.0313,2.0313,0,0,2.0212,2.021,2.0229,2.0251,2.0254,2.0284,2.0226,2.026,2.0282,2.0232,2.0278,2.0276,2.0282,2.0341,2.0366,2.0342,2.0467,2.0423,2.0431,2.0433,2.0468,2.0483,2.0497,2.0318,2.0317,2.0316,0,0,2.0311,2.0312,2.0357,2.0362,2.0367,2.0355,2.0366,2.0363,2.0359,2.0405,2.0369,2.0395,2.0437,2.0443,2.0452,2.0555,2.0526,2.0562,2.0625,2.0661,2.0674,2.0685,2.0723,2.0737,2.057,2.057,2.057,0,2.0368,2.0411,2.0384,2.0421,2.0432,2.0388,2.0434,2.0439,2.0452,2.0461,2.0433,2.0485,2.0486,2.0547,2.0572,2.058,2.0592,2.0563,2.0674,2.0685,2.0695,2.0731,2.0745,2.0575,2.0574,2.0574,2.0573,0,2.0481,2.0511,2.0547,2.0561,2.0576,2.0617,2.0597,2.0616,2.0596,2.0587,2.0635,2.0634,2.0656,2.0668,2.0649,2.0727,2.0711,2.0679,2.0629,2.0715,2.0749,2.0762,2.0581,2.058,2.0578,2.0577,0,0,2.0623,2.0622,2.0635,2.0641,2.0644,2.0668,2.0708,2.0728,2.0746,2.0756,2.0789,2.0826,2.0797,2.0807,2.0788,2.082,2.0903,2.0783,2.0783,2.0807,2.099,2.1015,2.1031,2.0883,2.0886,2.0888,2.0989,0,2.0721,2.0789,2.0766,2.0835,2.0864,2.0823,2.0858,2.0864,2.0857,2.088,2.0872,2.0899,2.0858,2.0864,2.0893,2.0886,2.0939,2.0878,2.0915,2.0917,2.0916,2.1048,2.1075,2.1171,2.1002,2.1004,2.1006,0,2.0845,2.086,2.0932,2.0931,2.0943,2.0974,2.0992,2.1015,2.1021,2.1014,2.1026,2.1001,2.104,2.099,2.1045,2.1004,2.1018,2.1017,2.102,2.1023,2.0967,2.1057,2.1201,2.1216,2.1026,2.1024,2.1023,0,2.0943,2.0982,2.103,2.1037,2.1037,2.106,2.1061,2.1065,2.1079,2.1095,2.1104,2.1124,2.1135,2.1152,2.1133,2.1098,2.1192,2.1139,2.1188,2.1188,2.121,2.1209,2.136,2.1217,2.1217,2.1217,2.1216,0,2.1056,2.1102,2.1075,2.1105,2.1156,2.1129,2.118,2.1177,2.1181,2.121,2.1175,2.1203,2.1176,2.1202,2.1188,2.1236,2.1241,2.1237,2.1233,2.1241,2.1242,2.1251,2.1244,2.122,2.1219,2.1219,2.1218,0,2.1175,2.1159,2.1209,2.1205,2.1205,2.1243,2.124,2.1268,2.1258,2.1295,2.1303,2.1288,2.1317,2.1299,2.1329,2.1319,2.1383,2.1369,2.1381,2.1378,2.1428,2.1424,2.159,2.1611,2.1454,2.1455,2.1457,0,2.1249,2.1283,2.1283,2.13,2.1304,2.1331,2.1346,2.1321,2.1338,2.1348,2.1375,2.1401,2.1421,2.1469,2.1461,2.1484,2.1471,2.1528,2.1474,2.1482,2.1474,2.1472,2.1476,2.1539,2.1541,2.1542,2.1544,0,2.1382,2.1372,2.1394,2.1414,2.1432,2.1446,2.1458,2.1474,2.1449,2.147,2.1499,2.1514,2.1544,2.1571,2.159,2.1592,2.1565,2.156,2.1573,2.1582,2.1589,2.1587,2.1412,2.1557,2.1556,2.1555,2.1554,2.1553,2.1481,2.151,2.1515,2.1541,2.1547,2.1559,2.1586,2.1579,2.1603,2.1626,2.161,2.1645,2.1651,2.1674,2.168,2.1707,2.1684,2.1702,2.1707,2.1712,2.172,2.1583,2.171,2.171,2.171,2.1709,2.1709,0,2.1613,2.1615,2.1639,2.1656,2.1677,2.1648,2.166,2.168,2.1711,2.1719,2.1739,2.1773,2.1799,2.1793,2.1817,2.184,2.1828,2.1847,2.1846,2.1847,2.1738,2.1726,2.1857,2.1857,2.1856,2.1856,2.1856,2.1856,2.1685,2.1733,2.1725,2.1776,2.1777,2.1811,2.182,2.1831,2.1838,2.1877,2.1899,2.1894,2.1898,2.1921,2.1944,2.1942,2.1953,2.1977,2.197,2.1869,2.1855,2.1841,2.1829,2.1979,2.1979,2.2077,2.2078,2.2078]},{"header":{"parameterUnit":"m.s-1","parameterCategory":1,"la1":30.2991,"la2":30.254,"lo1":-89.0895,"lo2":-89.0444,"dy":0.0017,"dx":0.0017,"nx":28,"ny":28,"refTime":"2025-07-28T09:00:00:Z","depth":0,"parameterNumber":3,"parameterNumberName":"V-component_of_WINDS"},"data":[0,0,0,0,0,0,0,0,0,0,0,0,0,0,0,0,0,0,0,0,0,0,0,0,0,0,0,0,0,0,0,0,0,0,0,0,0,0,0,0,0,0,0,0,0,0,0,0,0,0,0,0,0,0,0,0,0,0,-1.7797,-1.7798,0,-1.7824,-1.7825,-1.7825,-1.782,-1.7819,-1.7819,-1.7818,-1.7844,-1.7845,-1.7846,0,0,0,0,0,0,0,0,0,0,0,0,0,-1.7739,-1.774,-1.7797,-1.7798,-1.7798,-1.7824,-1.7825,-1.7825,-1.782,-1.7819,-1.7819,-1.7818,-1.7843,-1.7845,-1.7846,0,0,0,0,0,0,0,0,0,0,0,0,0,-1.7765,-1.7741,-1.7797,-1.7799,-1.7799,-1.7824,-1.7825,-1.7825,-1.782,-1.7819,-1.7818,-1.7818,-1.7843,-1.7845,-1.7846,-1.7871,0,0,-1.7851,-1.7852,0,0,0,0,0,0,0,0,-1.7764,-1.7767,-1.7798,-1.7799,-1.7799,-1.7818,-1.7814,-1.7841,-1.782,-1.7812,-1.7818,-1.7817,-1.7836,-1.7838,-1.7844,-1.7873,-1.7874,-1.7852,-1.7853,-1.7853,-1.7854,0,0,0,0,0,0,0,-1.7762,-1.7766,-1.7808,-1.7798,-1.7799,-1.7797,-1.78,-1.7819,-1.7827,-1.7813,-1.7812,-1.7816,-1.7836,-1.7843,-1.7845,-1.7874,-1.7852,-1.7853,-1.7854,-1.7855,-1.7924,-1.7925,0,0,0,0,0,0,-1.776,-1.7765,-1.7807,-1.7809,-1.7779,-1.7799,-1.7802,-1.7813,-1.7827,-1.7829,-1.7816,-1.7815,-1.784,-1.7843,-1.7846,-1.7876,-1.7853,-1.7855,-1.7856,-1.7924,-1.7925,-1.7926,0,0,0,0,0,0,-1.7759,-1.7764,-1.7806,-1.7787,-1.7792,-1.7801,-1.7812,-1.7813,-1.7821,-1.783,-1.7831,-1.7822,-1.784,-1.7844,-1.7865,-1.7877,-1.7856,-1.7857,-1.7923,-1.7924,-1.7925,-1.7937,0,0,0,0,0,0,-1.7757,-1.7763,-1.7773,-1.7787,-1.7793,-1.7825,-1.7813,-1.7815,-1.7824,-1.7823,-1.7836,-1.7837,-1.784,-1.7863,-1.7867,-1.7879,-1.7859,-1.7922,-1.7923,-1.7925,-1.7936,-1.7939,-1.7942,0,0,0,0,0,-1.7755,-1.7775,-1.7774,-1.7779,-1.7806,-1.7826,-1.7829,-1.7832,-1.7825,-1.7835,-1.7841,-1.7837,-1.7875,-1.7865,-1.787,-1.7883,-1.7921,-1.7923,-1.7925,-1.7935,-1.7938,-1.7941,0,0,0,0,0,0,-1.7762,-1.7777,-1.7776,-1.7801,-1.7812,-1.7825,-1.7838,-1.7836,-1.7849,-1.7848,-1.785,-1.7853,-1.7875,-1.7881,-1.7869,-1.7908,-1.7897,-1.79,-1.7903,-1.7907,-1.7909,-1.7907,-1.786,0,0,0,0,0,-1.7766,-1.7782,-1.7794,-1.7815,-1.7821,-1.7829,-1.7838,-1.7839,-1.7851,-1.7855,-1.7863,-1.7874,-1.7889,-1.7898,-1.7912,-1.7937,-1.794,-1.7948,-1.7951,-1.7953,-1.7956,-1.797,-1.7973,-1.7932,-1.7932,-1.7932,0,0,-1.7775,-1.7786,-1.7795,-1.7817,-1.7826,-1.7842,-1.7833,-1.785,-1.7862,-1.7858,-1.7879,-1.7885,-1.7897,-1.7921,-1.7932,-1.7927,-1.7968,-1.7956,-1.7957,-1.7958,-1.7972,-1.7976,-1.7979,-1.7933,-1.7933,-1.7933,0,0,-1.78,-1.781,-1.7828,-1.7838,-1.7852,-1.7857,-1.7862,-1.7875,-1.7879,-1.7901,-1.7899,-1.7913,-1.7938,-1.7947,-1.7955,-1.7984,-1.7981,-1.7989,-1.8003,-1.8016,-1.802,-1.8023,-1.8033,-1.8037,-1.7991,-1.7991,-1.7991,0,-1.7809,-1.7834,-1.7838,-1.7856,-1.7865,-1.7864,-1.7883,-1.7892,-1.7909,-1.7916,-1.791,-1.7942,-1.795,-1.7976,-1.7984,-1.799,-1.7995,-1.7987,-1.8019,-1.8022,-1.8025,-1.8035,-1.8039,-1.7992,-1.7992,-1.7992,-1.7992,0,-1.7845,-1.7862,-1.7875,-1.7894,-1.7905,-1.7923,-1.7929,-1.794,-1.7941,-1.7946,-1.7968,-1.7978,-1.7995,-1.8001,-1.8001,-1.8027,-1.8024,-1.8018,-1.8007,-1.8029,-1.8039,-1.8043,-1.7993,-1.7993,-1.7993,-1.7992,0,0,-1.7873,-1.7895,-1.7899,-1.7908,-1.7924,-1.7937,-1.7955,-1.7972,-1.7981,-1.7994,-1.8009,-1.8031,-1.8027,-1.8036,-1.8037,-1.8049,-1.8072,-1.8042,-1.8043,-1.8047,-1.8101,-1.8105,-1.8109,-1.807,-1.8071,-1.8072,-1.81,0,-1.7899,-1.7932,-1.7937,-1.7966,-1.7982,-1.7981,-1.7997,-1.8008,-1.8014,-1.8028,-1.8034,-1.805,-1.8043,-1.8048,-1.806,-1.8067,-1.8083,-1.8065,-1.8084,-1.8085,-1.808,-1.8114,-1.8117,-1.8144,-1.8104,-1.8104,-1.8105,0,-1.7934,-1.7949,-1.7979,-1.7994,-1.8001,-1.8015,-1.8031,-1.8045,-1.8058,-1.8061,-1.8072,-1.8072,-1.8091,-1.808,-1.8105,-1.8093,-1.8101,-1.8106,-1.8107,-1.8108,-1.8096,-1.8116,-1.8152,-1.8156,-1.8111,-1.811,-1.811,0,-1.7951,-1.7979,-1.8001,-1.8008,-1.8026,-1.8036,-1.8044,-1.8056,-1.8066,-1.808,-1.8087,-1.8102,-1.8111,-1.8123,-1.8127,-1.8119,-1.8153,-1.8142,-1.8155,-1.8155,-1.8162,-1.8161,-1.82,-1.8168,-1.8168,-1.8168,-1.8168,0,-1.798,-1.7998,-1.8009,-1.8023,-1.8044,-1.8049,-1.8069,-1.8077,-1.8088,-1.8103,-1.8103,-1.8116,-1.8122,-1.8136,-1.814,-1.816,-1.8164,-1.8167,-1.8168,-1.8167,-1.8167,-1.8172,-1.817,-1.8169,-1.8169,-1.8169,-1.8168,0,-1.8002,-1.801,-1.8034,-1.805,-1.8054,-1.8069,-1.8082,-1.8095,-1.8101,-1.8119,-1.8124,-1.8133,-1.8151,-1.8157,-1.8177,-1.818,-1.8203,-1.8203,-1.8199,-1.8199,-1.8212,-1.8211,-1.8255,-1.8261,-1.8226,-1.8226,-1.8227,0,-1.802,-1.8034,-1.8052,-1.8062,-1.807,-1.8087,-1.8097,-1.8103,-1.8114,-1.8131,-1.8142,-1.8159,-1.8173,-1.82,-1.8209,-1.8224,-1.8224,-1.8238,-1.8226,-1.8225,-1.8224,-1.8223,-1.8224,-1.824,-1.824,-1.8241,-1.8241,0,-1.805,-1.8053,-1.8069,-1.8086,-1.8099,-1.8113,-1.8126,-1.8134,-1.8142,-1.8154,-1.8172,-1.8183,-1.8205,-1.8222,-1.8238,-1.8246,-1.8245,-1.8245,-1.8249,-1.8248,-1.8245,-1.8247,-1.8205,-1.8244,-1.8243,-1.8243,-1.8243,-1.8243,-1.807,-1.8083,-1.8098,-1.8115,-1.8126,-1.8139,-1.8152,-1.816,-1.8176,-1.8194,-1.8197,-1.8216,-1.8229,-1.8251,-1.826,-1.8275,-1.8271,-1.8276,-1.8278,-1.8279,-1.828,-1.8243,-1.8278,-1.8277,-1.8277,-1.8277,-1.8277,0,-1.81,-1.8109,-1.8126,-1.8145,-1.8159,-1.8158,-1.8172,-1.8184,-1.8201,-1.8214,-1.8228,-1.8249,-1.8266,-1.8276,-1.8293,-1.8303,-1.8303,-1.8307,-1.8306,-1.8308,-1.8282,-1.8277,-1.8307,-1.8307,-1.8307,-1.8307,-1.8307,-1.8307,-1.8117,-1.8139,-1.8144,-1.8172,-1.8182,-1.8201,-1.821,-1.8221,-1.8232,-1.8255,-1.827,-1.8277,-1.8288,-1.8306,-1.8322,-1.8324,-1.833,-1.8335,-1.8337,-1.8313,-1.831,-1.8307,-1.8302,-1.8336,-1.8336,-1.8361,-1.8361,-1.8361]}]]